Fort Carson, CO

9:05 PM MDT on September 19, 2017 (GMT -0600)
Butts Army Air Field

Weather History for KFCS - November, 2012

Change the Weather History Date:

Tuesday, November 27, 2012

  Actual Average Record
Temperature  
Mean Temperature 36 °F -  
Max Temperature 54 °F 44 °F 66 °F (2014)
Min Temperature 19 °F 23 °F 8 °F (1996)
Degree Days  
Heating Degree Days 28    
Moisture  
Dew Point 7 °F    
Average Humidity 49    
Maximum Humidity 93    
Minimum Humidity 8    
Precipitation  
Precipitation 0.00 in - - ()
Sea Level Pressure  
Sea Level Pressure 30.24 in    
Wind  
Wind Speed 4 mph (NNW)    
Max Wind Speed 12 mph    
Max Gust Speed -    
Visibility 10 miles    
Events      
Averages and records for this station are not official NWS values.
T = Trace of Precipitation, MM = Missing Value Source: NWS Daily Summary

Daily Weather History Graph

Daily Weather History Graph

Search for Another Location

Airport or City:

Trip Planner

Search our weather history database for the weather conditions in past years. The results will help you decide how hot, cold, wet, or windy it might be!

Date:

Astronomy

Nov. 27, 2012 Rise Set
Actual Time 6:54 AM MST 4:38 PM MST
Civil Twilight 6:25 AM MST 5:08 PM MST
Nautical Twilight 5:52 AM MST 5:40 PM MST
Astronomical Twilight 5:20 AM MST 6:12 PM MST
Moon 4:11 PM MST (11/27) 6:02 AM MST (11/27)
Length of Visible Light 10h 42m
Length of Day
9h 44m
Waxing Gibbous, 99% of the Moon is Illuminated
Nov 27
Waxing Gibbous
Nov 28
Full
Dec 6
Last Quarter
Dec 13
New
Dec 19
First Quarter

Hourly Weather History & Observations

Time (MST) Temp. Windchill Dew Point Humidity Pressure Visibility Wind Dir Wind Speed Gust Speed Precip Events Conditions
12:28 AM 24.8 °F - 23.0 °F 93% 30.26 in 10.0 mi SSW 2.3 mph - N/A   Overcast
12:58 AM 25.2 °F - 22.6 °F 90% 30.34 in 10.0 mi Calm Calm - N/A   Overcast
1:08 AM 24.8 °F - 23.0 °F 93% 30.24 in 10.0 mi Variable 2.3 mph - N/A   Overcast
1:18 AM 24.8 °F 20.5 °F 23.0 °F 93% 30.24 in 10.0 mi North 3.5 mph - N/A   Overcast
1:58 AM 24.8 °F - 22.3 °F 90% 30.33 in 10.0 mi Calm Calm - N/A   Overcast
2:08 AM 24.8 °F - 23.0 °F 93% 30.23 in 10.0 mi North 2.3 mph - N/A   Overcast
2:38 AM 24.8 °F - 21.2 °F 86% 30.22 in 10.0 mi Calm Calm - N/A   Overcast
2:58 AM 24.3 °F 17.3 °F 21.4 °F 89% 30.32 in 10.0 mi North 5.8 mph - N/A   Overcast
3:23 AM 21.2 °F - 19.4 °F 93% 30.19 in 10.0 mi NNW 2.3 mph - N/A   Scattered Clouds
3:28 AM 21.2 °F - 19.4 °F 93% 30.20 in 10.0 mi NW 2.3 mph - N/A   Mostly Cloudy
3:33 AM 21.2 °F 16.4 °F 19.4 °F 93% 30.20 in 10.0 mi NW 3.5 mph - N/A   Mostly Cloudy
3:48 AM 21.2 °F 16.4 °F 19.4 °F 93% 30.19 in 10.0 mi NW 3.5 mph - N/A   Scattered Clouds
3:58 AM 21.2 °F 16.4 °F 19.4 °F 93% 30.32 in 10.0 mi Variable 3.5 mph - N/A   Scattered Clouds
4:58 AM 21.0 °F 14.6 °F 18.5 °F 90% 30.32 in 10.0 mi NNW 4.6 mph - N/A   Partly Cloudy
5:55 AM 19.2 °F 11.3 °F 16.9 °F 91% 30.32 in 10.0 mi NNW 5.8 mph - N/A   Clear
6:55 AM 23.9 °F 15.0 °F 14.2 °F 66% 30.32 in 10.0 mi NW 8.1 mph - N/A   Scattered Clouds
7:58 AM 32.4 °F 26.9 °F 15.8 °F 51% 30.32 in 10.0 mi North 5.8 mph - N/A   Scattered Clouds
8:56 AM 42.4 °F 39.6 °F 6.4 °F 23% 30.26 in 10.0 mi North 4.6 mph - N/A   Scattered Clouds
9:58 AM 46.0 °F 42.5 °F 7.2 °F 20% 30.24 in 10.0 mi NNW 6.9 mph - N/A   Mostly Cloudy
10:58 AM 51.3 °F - -1.8 °F 11% 30.19 in 10.0 mi North 4.6 mph - N/A   Mostly Cloudy
11:58 AM 52.5 °F - -4.7 °F 9% 30.15 in 10.0 mi NNW 3.5 mph - N/A   Mostly Cloudy
12:58 PM 53.6 °F - -6.5 °F 8% 30.22 in 10.0 mi North 5.8 mph - N/A   Clear
1:17 PM 53.6 °F - -7.6 °F 8% 30.14 in 10.0 mi NNE 4.6 mph - N/A   Mostly Cloudy
1:26 PM 53.6 °F - -5.8 °F 9% 30.14 in 9.0 mi NNE 4.6 mph - N/A   Clear
1:58 PM 54.5 °F - -5.8 °F 8% 30.19 in 10.0 mi North 5.8 mph - 0.00 in   Clear
2:58 PM 52.7 °F - -0.2 °F 11% 30.21 in 10.0 mi North 4.6 mph - N/A   Clear
3:58 PM 54.5 °F - -1.1 °F 10% 30.22 in 10.0 mi North 5.8 mph - N/A   Scattered Clouds
4:58 PM 46.0 °F 43.1 °F -0.9 °F 14% 30.27 in 10.0 mi NNE 5.8 mph - N/A   Clear
5:58 PM 41.5 °F 36.4 °F -3.3 °F 15% 30.16 in 10.0 mi NNW 8.1 mph - N/A   Clear
6:58 PM 37.0 °F 31.0 °F -8.1 °F 14% 30.18 in 10.0 mi NW 8.1 mph - N/A   Clear
7:58 PM 35.6 °F 29.9 °F -8.7 °F 15% 30.33 in 10.0 mi NNW 6.9 mph - N/A   Clear
8:58 PM 34.9 °F 27.7 °F -4.7 °F 18% 30.30 in 10.0 mi North 9.2 mph - N/A   Clear
9:44 PM 35.6 °F 27.5 °F -5.8 °F 17% 30.22 in 10.0 mi NW 11.5 mph - N/A   Clear
9:58 PM 34.5 °F 28.6 °F -6.0 °F 18% 30.30 in 10.0 mi WNW 6.9 mph - N/A   Clear
10:58 PM 31.6 °F 25.1 °F -8.0 °F 18% 30.25 in 10.0 mi WNW 6.9 mph - N/A   Clear
11:58 PM 34.7 °F 29.6 °F -8.9 °F 15% 30.26 in 10.0 mi WNW 5.8 mph - N/A   Clear